Location: Shepherdstown, WV
(39.4326°N, 77.8042°W)
Time: 05:47:03
(UTC-04:00)

SR - Pass Details

Date: 02 August 2021
Orbit: 581 x 874 km, 66.7° (Epoch: 24 September)

Event Time Altitude Azimuth Distance (km) Brightness Sun altitude
Rises 07:13:41 0° 221° (SW) 3,445 ? 10.4°
Reaches altitude 10° 07:16:16 10° 226° (SW) 2,498 ? 10.9°
Maximum altitude 07:21:56 53° 303° (WNW) 1,024 ? 11.9°
Drops below altitude 10° 07:27:20 10° 20° (NNE) 2,381 ? 12.9°
Sets 07:29:45 0° 25° (NNE) 3,271 ? 13.4°
